Alexandria, MN

3:43 AM CST on February 13, 2016 (GMT -0600)
Chandler

Weather History for KAXN - February, 2013

Change the Weather History Date:

Monday, February 25, 2013

  Actual Average Record
Temperature  
Mean Temperature 16 °F -  
Max Temperature 25 °F - - ()
Min Temperature 8 °F - - ()
Degree Days  
Heating Degree Days 48    
Moisture  
Dew Point 16 °F    
Average Humidity 90    
Maximum Humidity 100    
Minimum Humidity 74    
Precipitation  
Precipitation 0.00 in - - ()
Sea Level Pressure  
Sea Level Pressure 30.09 in    
Wind  
Wind Speed 2 mph (South)    
Max Wind Speed 7 mph    
Max Gust Speed -    
Visibility 4 miles    
Events Fog    
T = Trace of Precipitation, MM = Missing Value Source: NWS Daily Summary

Daily Weather History Graph

Daily Weather History Graph

Search for Another Location

Airport or City:

Trip Planner

Search our weather history database for the weather conditions in past years. The results will help you decide how hot, cold, wet, or windy it might be!

Date:

Astronomy

Feb. 25, 2013 Rise Set
Actual Time 7:06 AM CST 6:02 PM CST
Civil Twilight 6:36 AM CST 6:33 PM CST
Nautical Twilight 6:02 AM CST 7:07 PM CST
Astronomical Twilight 5:27 AM CST 7:42 PM CST
Moon 6:20 PM CST (2/25) 6:35 AM CST (2/25)
Length of Visible Light 11h 56m
Length of Day
10h 56m
Full, 100% of the Moon is Illuminated
Feb 25
Full
Feb 25
Full
Mar 4
Last Quarter
Mar 11
New
Mar 19
First Quarter

Hourly Weather History & Observations

Time (CST) Temp. Windchill Dew Point Humidity Pressure Visibility Wind Dir Wind Speed Gust Speed Precip Events Conditions
12:53 AM 15.1 °F 5.2 °F 8.1 °F 74% 30.14 in 10.0 mi SSW 6.9 mph - N/A   Mostly Cloudy
1:53 AM 12.9 °F - 6.1 °F 74% 30.13 in 10.0 mi Calm Calm - N/A   Partly Cloudy
2:53 AM 10.9 °F - 7.0 °F 84% 30.12 in 10.0 mi Calm Calm - N/A   Clear
3:53 AM 10.0 °F - 6.1 °F 84% 30.11 in 7.0 mi Calm Calm - N/A   Clear
4:53 AM 9.0 °F - 6.1 °F 88% 30.11 in 4.0 mi Calm Calm - N/A   Clear
5:07 AM 8.6 °F - 5.0 °F 85% 30.04 in 4.0 mi Calm Calm - N/A   Scattered Clouds
5:15 AM 8.6 °F 2.0 °F 6.8 °F 92% 30.03 in 3.0 mi SSW 3.5 mph - N/A   Mostly Cloudy
5:24 AM 10.4 °F 4.0 °F 6.8 °F 85% 30.04 in 1.8 mi SSW 3.5 mph - N/A   Overcast
5:28 AM 10.4 °F 4.0 °F 6.8 °F 85% 30.04 in 0.8 mi South 3.5 mph - N/A   Mist
5:37 AM 12.2 °F 2.9 °F 8.6 °F 85% 30.04 in 0.2 mi SSE 5.8 mph - N/A Fog Light Freezing Fog
5:53 AM 12.9 °F 6.9 °F 12.0 °F 96% 30.13 in 0.2 mi South 3.5 mph - N/A Fog Light Freezing Fog
6:53 AM 14.0 °F 8.2 °F 12.0 °F 92% 30.13 in 0.2 mi SSE 3.5 mph - N/A Fog Light Freezing Fog
7:53 AM 15.1 °F - 12.9 °F 91% 30.14 in 0.2 mi Calm Calm - N/A Fog Light Freezing Fog
8:53 AM 16.0 °F - 15.1 °F 96% 30.15 in 0.2 mi Calm Calm - N/A Fog Light Freezing Fog
9:13 AM 17.6 °F - 15.8 °F 93% 30.07 in 1.0 mi Calm Calm - N/A   Overcast
9:27 AM 17.6 °F - 15.8 °F 93% 30.07 in 0.8 mi Calm Calm - N/A   Overcast
9:41 AM 17.6 °F - 15.8 °F 93% 30.06 in 0.2 mi Calm Calm - N/A Fog Light Freezing Fog
9:53 AM 18.0 °F - 18.0 °F 100% 30.15 in 0.2 mi Calm Calm - N/A Fog Light Freezing Fog
10:40 AM 19.4 °F - 19.4 °F 100% 30.06 in 0.8 mi Calm Calm - N/A   Overcast
10:51 AM 19.4 °F - 19.4 °F 100% 30.06 in 1.0 mi Calm Calm - N/A   Overcast
10:53 AM 19.9 °F - 19.9 °F 100% 30.15 in 1.0 mi Calm Calm - N/A   Overcast
11:13 AM 21.2 °F - 19.4 °F 93% 30.06 in 1.5 mi Calm Calm - N/A   Overcast
11:42 AM 23.0 °F - 19.4 °F 86% 30.06 in 2.0 mi Calm Calm - N/A   Overcast
11:53 AM 23.0 °F - 21.0 °F 92% 30.14 in 2.0 mi Calm Calm - N/A   Overcast
12:15 PM 24.8 °F - 21.2 °F 86% 30.06 in 3.0 mi Calm Calm - N/A   Overcast
12:53 PM 24.1 °F 18.2 °F 21.0 °F 88% 30.14 in 7.0 mi SW 4.6 mph - N/A   Overcast
1:53 PM 24.1 °F - 21.0 °F 88% 30.12 in 9.0 mi Calm Calm - N/A   Overcast
2:43 PM 24.8 °F - 21.2 °F 86% 30.03 in 9.0 mi Calm Calm - N/A   Overcast
2:53 PM 25.0 °F - 21.0 °F 85% 30.11 in 10.0 mi Calm Calm - N/A   Overcast
3:53 PM 25.0 °F - 21.0 °F 85% 30.11 in 10.0 mi Calm Calm - N/A   Overcast
4:53 PM 25.0 °F 19.3 °F 19.9 °F 81% 30.12 in 9.0 mi South 4.6 mph - N/A   Overcast
5:28 PM 24.8 °F 19.1 °F 19.4 °F 80% 30.04 in 8.0 mi SSW 4.6 mph - N/A   Overcast
5:53 PM 23.0 °F 15.8 °F 19.9 °F 88% 30.13 in 6.0 mi SSE 5.8 mph - N/A   Overcast
6:46 PM 21.2 °F - 19.4 °F 93% 30.05 in 5.0 mi Calm Calm - N/A   Overcast
6:53 PM 21.9 °F 17.2 °F 19.9 °F 92% 30.13 in 5.0 mi NE 3.5 mph - N/A   Overcast
7:33 PM 21.2 °F - 19.4 °F 93% 30.04 in 1.8 mi Calm Calm - N/A   Overcast
7:42 PM 21.2 °F 14.9 °F 19.4 °F 93% 30.04 in 1.0 mi South 4.6 mph - N/A   Overcast
7:49 PM 21.2 °F 16.4 °F 19.4 °F 93% 30.04 in 0.5 mi South 3.5 mph - N/A Fog Light Freezing Fog
7:53 PM 21.0 °F 16.2 °F 19.0 °F 92% 30.12 in 0.5 mi SE 3.5 mph - N/A Fog Light Freezing Fog
9:53 PM 19.9 °F 14.9 °F 18.0 °F 92% 30.09 in 0.2 mi SE 3.5 mph - N/A Fog Light Freezing Fog
10:53 PM 19.9 °F 12.1 °F 18.0 °F 92% 30.09 in 0.2 mi South 5.8 mph - N/A Fog Light Freezing Fog
11:53 PM 19.9 °F 13.4 °F 18.0 °F 92% 30.10 in 0.2 mi SE 4.6 mph - N/A Fog Light Freezing Fog